Weather History for Winslow, AZ

Change the Weather History Date:

Saturday, October 6, 2012

  Actual Average Record
Temperature  
Mean Temperature 67 °F 60 °F  
Max Temperature 82 °F 77 °F 90 °F (1934)
Min Temperature 51 °F 43 °F 26 °F (1995)
Degree Days  
Heating Degree Days 0 5  
Month to date heating degree days 0 26  
Since 1 July heating degree days 2 57  
Cooling Degree Days 2 1  
Month to date cooling degree days 19 6  
Year to date cooling degree days 1442 1207  
Growing Degree Days 16 (Base 50)    
Moisture  
Dew Point 29 °F    
Average Humidity 24    
Maximum Humidity 35    
Minimum Humidity 13    
Precipitation  
Precipitation 0.00 in 0.02 in 1.57 in (1972)
Month to date precipitation 0.00 0.12  
Year to date precipitation 4.74 5.53  
Sea Level Pressure  
Sea Level Pressure 29.85 in    
Wind  
Wind Speed 7 mph (WSW)    
Max Wind Speed 21 mph    
Max Gust Speed 25 mph    
Visibility 10 miles    
Events      
T = Trace of Precipitation, MM = Missing Value Source: NWS Daily Summary

Daily Weather History Graph

Daily Weather History Graph

Search for Another Location

Airport:

Trip Planner

Search our weather history database for the weather conditions in past years. The results will help you decide how hot, cold, wet, or windy it might be!

Date:

Astronomy

Oct. 06, 2012 Rise Set
Actual Time 6:21 AM MST 5:59 PM MST
Civil Twilight 5:56 AM MST 6:24 PM MST
Nautical Twilight 5:27 AM MST 6:53 PM MST
Astronomical Twilight 4:57 AM MST 7:23 PM MST
Moon 10:27 PM MST (10/6) 12:08 PM MST (10/6)
Length of Visible Light 12h 27m
Length of Day
11h 37m
Waning Gibbous, 64% of the Moon is Illuminated
Oct 6
Waning Gibbous
Oct 8
Last Quarter
Oct 15
New
Oct 21
First Quarter
Oct 29
Full

Hourly Weather History & Observations

Time (MST) Temp. Dew Point Humidity Pressure Visibility Wind Dir Wind Speed Gust Speed Precip Events Conditions
12:56 AM 64.9 °F 28.0 °F 25% 29.89 in 10.0 mi Calm Calm - N/A   Clear
1:56 AM 63.0 °F 28.0 °F 27% 29.89 in 10.0 mi WSW 9.2 mph - N/A   Clear
2:56 AM 60.1 °F 28.0 °F 30% 29.88 in 10.0 mi WSW 3.5 mph - N/A   Clear
3:56 AM 61.0 °F 28.0 °F 29% 29.87 in 10.0 mi Variable 3.5 mph - N/A   Clear
4:56 AM 59.0 °F 28.9 °F 32% 29.89 in 10.0 mi Calm Calm - N/A   Clear
5:56 AM 53.1 °F 27.0 °F 37% 29.93 in 10.0 mi Calm Calm - N/A   Clear
6:56 AM 53.1 °F 27.0 °F 37% 29.94 in 10.0 mi Calm Calm - N/A   Clear
7:56 AM 59.0 °F 30.0 °F 33% 29.94 in 10.0 mi ESE 3.5 mph - N/A   Clear
8:56 AM 69.1 °F 30.9 °F 24% 29.92 in 10.0 mi Calm Calm - N/A   Clear
9:56 AM 73.9 °F 30.9 °F 21% 29.91 in 10.0 mi NW 5.8 mph - N/A   Clear
10:56 AM 75.9 °F 30.9 °F 19% 29.88 in 10.0 mi NW 4.6 mph - N/A   Clear
11:56 AM 80.1 °F 27.0 °F 14% 29.85 in 10.0 mi Variable 6.9 mph - N/A   Clear
12:56 PM 80.1 °F 25.0 °F 13% 29.81 in 10.0 mi North 9.2 mph 17.3 mph N/A   Clear
1:56 PM 81.0 °F 26.1 °F 13% 29.79 in 10.0 mi NNE 9.2 mph 17.3 mph N/A   Clear
2:56 PM 80.1 °F 25.0 °F 13% 29.79 in 10.0 mi Calm Calm - N/A   Clear
3:56 PM 80.1 °F 25.0 °F 13% 29.77 in 10.0 mi SSE 4.6 mph - N/A   Clear
4:56 PM 79.0 °F 24.1 °F 13% 29.78 in 10.0 mi SW 16.1 mph 23.0 mph N/A   Clear
5:56 PM 73.9 °F 26.1 °F 17% 29.82 in 10.0 mi WSW 13.8 mph - N/A   Clear
6:56 PM 69.1 °F 27.0 °F 21% 29.85 in 10.0 mi SW 10.4 mph - N/A   Clear
7:56 PM 66.9 °F 32.0 °F 27% 29.85 in 10.0 mi SSW 10.4 mph - N/A   Clear
8:56 PM 66.0 °F 32.0 °F 28% 29.82 in 10.0 mi SW 16.1 mph - N/A   Clear
9:56 PM 64.0 °F 32.0 °F 30% 29.83 in 10.0 mi WSW 12.7 mph - N/A   Clear
10:56 PM 63.0 °F 32.0 °F 31% 29.83 in 10.0 mi WSW 15.0 mph - N/A   Clear
11:56 PM 62.1 °F 32.0 °F 32% 29.82 in 10.0 mi SW 15.0 mph - N/A   Clear